#timestamp,LO_Frequency,Hit,StdDev 
1703775615.4,286046998.6,N
1703775635.3,286046999.4,N
1703775655.1,286046996.5,Y
1703775656.0,286046996.5,P
1703775675.8,286046996.9,N
1703775695.7,286046999.2,N
1703775715.5,286046998.8,N
1703775735.3,286047000.7,N
1703775755.2,286047000.6,N
1703775775.0,286047001.1,N
1703775775.9,286047001.1,N
1703775795.8,286047000.5,N
1703775815.6,286046998.2,N
1703775835.4,286046998.9,N
1703775855.3,286047001.2,N
1703775875.1,286047000.3,N
1703775895.8,286047000.1,N
1703775915.7,286047000.9,N
1703775935.5,286047001.2,N
1703775955.4,286047000.6,N
1703775975.2,286046998.5,N
1703775995.0,286046998.2,N
1703775995.9,286046998.2,N
1703776015.8,286046998.6,N
1703776035.6,286047000.3,N
1703776055.5,286047000.9,N
1703776075.3,286047001.0,N
1703776095.1,286046998.5,N
1703776115.9,286046998.8,N
1703776135.7,286046998.2,N
1703776155.6,286046998.6,N
1703776175.4,286046999.0,N
1703776195.2,286046998.6,N
1703776215.1,286047001.0,N
1703776216.0,286047001.0,N
1703776235.8,286046998.6,N
1703776255.6,286046998.1,N
1703776275.5,286047000.3,N
1703776295.3,286046999.8,N
1703776315.2,286047001.9,N
1703776335.9,286047002.0,N
1703776355.7,286047001.3,N
1703776375.6,286047003.6,N
1703776395.4,286047003.8,N
1703776415.3,286047002.2,N
1703776435.1,286047000.0,N
1703776436.0,286047000.0,N
1703776455.8,286047000.1,N
1703776475.7,286046998.6,N
1703776495.5,286046998.1,N
1703776515.3,286046998.2,N
1703776535.2,286046996.5,N
1703776555.0,286046999.2,N
1703776555.9,286046999.2,N
1703776575.8,286046997.3,N
1703776595.6,286046997.4,N
1703776615.4,286046997.4,N
1703776635.3,286046997.1,N
1703776655.1,286046995.3,N
1703776675.8,286046997.7,N
1703776695.7,286046995.4,N
1703776715.5,286046995.2,N
1703776735.4,286046995.9,N
1703776755.2,286046996.4,N
1703776775.0,286046995.9,N
1703776775.9,286046995.9,N
1703776795.8,286046996.1,N
1703776815.6,286046993.7,N
1703776835.4,286046994.0,N
1703776855.3,286046994.1,N
1703776875.1,286046992.1,N
1703776895.9,286046994.2,N
1703776915.7,286046991.7,Y
1703776935.5,286046995.5,P
1703776955.4,286046995.8,P
1703776975.2,286046996.3,P
1703776995.1,286046993.3,Y
1703776996.0,286046993.3,P
1703777015.8,286046997.0,N
1703777035.6,286046996.7,N
1703777055.5,286046997.2,N
1703777075.3,286046997.6,N
1703777095.2,286046995.2,Y
1703777115.9,286047002.8,P
1703777135.7,286047000.5,N
1703777155.6,286047002.5,N
1703777175.4,286047000.0,N
1703777195.2,286046998.9,N
1703777215.1,286046998.4,N
1703777216.0,286046998.4,N
1703777235.8,286046998.9,N
1703777255.7,286046998.3,N
1703777275.5,286046999.4,N
1703777295.3,286046998.6,N
1703777315.2,286046998.1,N
1703777335.0,286047001.2,N
1703777335.9,286047001.2,N
1703777355.7,286046999.7,N
1703777375.6,286047001.1,N
1703777395.4,286047000.6,N
1703777415.3,286046999.9,N
1703777435.1,286046999.3,N
1703777436.0,286046999.3,N
1703777455.8,286046996.7,N
1703777475.7,286046996.9,N
1703777495.5,286046999.1,N
1703777515.3,286046999.6,N
1703777535.2,286046996.9,N
1703777555.0,286046996.6,N
1703777555.9,286046996.6,N
1703777575.8,286046997.6,N
1703777595.6,286046997.5,N
1703777615.4,286046997.1,N
1703777635.3,286046997.7,N
1703777655.1,286046996.8,N
1703777675.8,286046995.5,N
1703777695.7,286046995.2,Y
1703777715.5,286046997.1,P
1703777735.4,286046997.6,P
1703777755.2,286046998.0,P
1703777775.0,286046995.1,Y
1703777775.9,286046995.1,P
1703777795.8,286046998.7,N
1703777815.6,286046999.6,N
1703777835.5,286046997.1,N
1703777855.3,286046998.8,N
1703777875.1,286046998.2,N
1703777895.9,286046999.4,N
1703777915.7,286046999.3,N
1703777935.5,286046997.8,N
1703777955.4,286046997.0,N
1703777975.2,286046996.5,N
1703777995.1,286046996.9,N
1703777996.0,286046996.9,N
1703778015.8,286046999.1,N
1703778035.6,286046997.0,N
1703778055.5,286046999.5,N
1703778075.3,286046996.7,N
1703778095.1,286046996.5,N
1703778115.9,286046997.2,N
1703778135.7,286046999.6,N
1703778155.6,286046998.7,N
1703778175.4,286046996.5,N
1703778195.2,286046996.9,N
1703778215.1,286046994.9,Y
1703778216.0,286046994.9,P
1703778235.8,286046999.3,N
1703778255.6,286046999.2,N
1703778275.5,286046996.5,N
1703778295.3,286046999.4,N
1703778315.2,286046999.2,N
1703778335.0,286046997.8,N
1703778335.9,286046997.8,N
1703778355.7,286046999.2,N
1703778375.6,286046997.7,N
1703778395.4,286046997.3,N
1703778415.3,286046994.9,Y
1703778435.1,286047000.3,P
1703778455.8,286047002.4,N
1703778475.7,286047002.7,N
1703778495.5,286047002.4,N
1703778515.4,286047000.3,N
1703778535.2,286047000.3,N
1703778555.0,286047000.6,N
1703778555.9,286047000.6,N
1703778575.8,286047000.0,N
1703778595.6,286047000.7,N
1703778615.5,286047000.8,N
1703778635.3,286046998.5,N
1703778655.1,286046998.1,N
1703778675.9,286047002.7,N
1703778695.7,286047000.3,N
1703778715.5,286047002.0,N
1703778735.4,286047004.2,N
1703778755.2,286047002.1,N
1703778775.1,286047000.4,N
1703778776.0,286047000.4,N
1703778795.8,286047000.4,N
1703778815.6,286047001.6,N
1703778835.5,286047002.7,N
1703778855.3,286047002.4,N
1703778875.2,286047001.5,N
1703778895.0,286047004.3,N
1703778895.9,286047004.3,N
1703778915.8,286047001.7,N
1703778935.6,286047002.4,N
1703778955.4,286047000.0,N
1703778975.3,286047000.8,N
1703778995.1,286046999.7,N
1703779015.9,286046999.9,N
1703779035.7,286046998.6,N
1703779055.5,286046998.5,N
1703779075.4,286047000.4,N
1703779095.2,286047001.2,N
1703779115.0,286046998.3,N
1703779116.0,286046998.3,N
1703779135.8,286047001.2,N
1703779155.6,286047001.2,N
1703779175.5,286047000.1,N
1703779195.3,286046999.7,N
